| time (UTC) | temp F | wind direction | speed MPH | gust MPH | rain 1hr in | rain 24hr in | rain mn in | humidity % | barometer mb |
| 20260906205352 | 76 | 61 | 6.0 | 8.0 | 0.00 | 0.00 | 0.00 | 59 | 1020.1 |
| 20260906204847 | 76 | 92 | 4.0 | 7.0 | 0.00 | 0.00 | 0.00 | 59 | 1019.9 |
| 20260906204346 | 76 | 63 | 5.0 | 7.0 | 0.00 | 0.00 | 0.00 | 60 | 1019.9 |
| 20260906203845 | 76 | 77 | 4.0 | 8.0 | 0.00 | 0.00 | 0.00 | 63 | 1020.0 |
| 20260906203341 | 76 | 50 | 5.0 | 8.0 | 0.00 | 0.00 | 0.00 | 60 | 1020.0 |
| 20260906202838 | 76 | 88 | 5.0 | 9.0 | 0.00 | 0.00 | 0.00 | 60 | 1020.0 |
| 20260906202332 | 76 | 54 | 4.0 | 6.0 | 0.00 | 0.00 | 0.00 | 60 | 1020.0 |
| 20260906201831 | 76 | 67 | 6.0 | 9.0 | 0.00 | 0.00 | 0.00 | 60 | 1020.0 |
| 20260906201326 | 76 | 91 | 5.0 | 7.0 | 0.00 | 0.00 | 0.00 | 61 | 1019.7 |
| 20260906200822 | 75 | 84 | 7.0 | 9.0 | 0.00 | 0.00 | 0.00 | 61 | 1019.7 |
| 20260906200318 | 76 | 88 | 6.0 | 9.0 | 0.00 | 0.00 | 0.00 | 58 | 1019.9 |
| 20260906195812 | 76 | 23 | 4.0 | 6.0 | 0.00 | 0.00 | 0.00 | 61 | 1019.9 |
| 20260906195309 | 76 | 158 | 4.0 | 10.0 | 0.00 | 0.00 | 0.00 | 60 | 1020.0 |
| 20260906194805 | 76 | 65 | 4.0 | 7.0 | 0.00 | 0.00 | 0.00 | 62 | 1019.8 |
| 20260906194300 | 76 | 47 | 3.0 | 7.0 | 0.00 | 0.00 | 0.00 | 60 | 1019.8 |
| 20260906193755 | 76 | 53 | 4.0 | 7.0 | 0.00 | 0.00 | 0.00 | 60 | 1019.8 |
| 20260906193249 | 76 | 155 | 3.0 | 7.0 | 0.00 | 0.00 | 0.00 | 61 | 1019.9 |
| 20260906192746 | 76 | 94 | 4.0 | 6.0 | 0.00 | 0.00 | 0.00 | 61 | 1019.8 |
| 20260906192246 | 76 | 63 | 5.0 | 8.0 | 0.00 | 0.00 | 0.00 | 61 | 1020.0 |
| 20260906191744 | 76 | 72 | 7.0 | 8.0 | 0.00 | 0.00 | 0.00 | 63 | 1020.0 |
| 20260906191239 | 76 | 144 | 3.0 | 8.0 | 0.00 | 0.00 | 0.00 | 62 | 1020.1 |
| 20260906190734 | 76 | 99 | 4.0 | 8.0 | 0.00 | 0.00 | 0.00 | 63 | 1019.8 |
| 20260906190228 | 76 | 80 | 5.0 | 10.0 | 0.00 | 0.00 | 0.00 | 63 | 1020.1 |
| 20260906185727 | 76 | 81 | 7.0 | 9.0 | 0.00 | 0.00 | 0.00 | 62 | 1019.9 |
| 20260906185226 | 76 | 45 | 3.0 | 8.0 | 0.00 | 0.00 | 0.00 | 63 | 1019.9 |
| 20260906184721 | 75 | 71 | 6.0 | 10.0 | 0.00 | 0.00 | 0.00 | 62 | 1020.0 |
| 20260906184216 | 76 | 209 | 1.0 | 5.0 | 0.00 | 0.00 | 0.00 | 63 | 1020.0 |
| 20260906183712 | 76 | 76 | 5.0 | 8.0 | 0.00 | 0.00 | 0.00 | 63 | 1019.9 |
| 20260906183209 | 77 | 76 | 4.0 | 9.0 | 0.00 | 0.00 | 0.00 | 61 | 1020.2 |
| 20260906182708 | 76 | 140 | 3.0 | 7.0 | 0.00 | 0.00 | 0.00 | 65 | 1020.3 |
| 20260906182204 | 76 | 82 | 5.0 | 10.0 | 0.00 | 0.00 | 0.00 | 63 | 1020.3 |
| 20260906181700 | 76 | 35 | 5.0 | 11.0 | 0.00 | 0.00 | 0.00 | 64 | 1020.5 |
| 20260906181156 | 75 | 57 | 3.0 | 8.0 | 0.00 | 0.00 | 0.00 | 65 | 1020.2 |
| 20260906180655 | 75 | 348 | 4.0 | 8.0 | 0.00 | 0.00 | 0.00 | 68 | 1020.3 |
| 20260906180151 | 75 | 88 | 3.0 | 8.0 | 0.00 | 0.00 | 0.00 | 67 | 1020.4 |
| 20260906175649 | 75 | 75 | 4.0 | 7.0 | 0.00 | 0.00 | 0.00 | 65 | 1020.4 |
| 20260906175144 | 74 | 62 | 1.0 | 13.0 | 0.00 | 0.00 | 0.00 | 67 | 1020.8 |
| 20260906174642 | 75 | 32 | 1.0 | 8.0 | 0.00 | 0.00 | 0.00 | 69 | 1020.4 |
| 20260906174137 | 75 | 57 | 2.0 | 6.0 | 0.00 | 0.00 | 0.00 | 71 | 1020.5 |
| 20260906173632 | 76 | 66 | 5.0 | 8.0 | 0.00 | 0.00 | 0.00 | 69 | 1020.6 |
| 20260906173128 | 76 | 57 | 5.0 | 8.0 | 0.00 | 0.00 | 0.00 | 67 | 1020.8 |
| 20260906172627 | 75 | 85 | 2.0 | 10.0 | 0.00 | 0.00 | 0.00 | 69 | 1020.6 |
| 20260906172123 | 76 | 48 | 3.0 | 8.0 | 0.00 | 0.00 | 0.00 | 69 | 1020.6 |
| 20260906171622 | 76 | 30 | 5.0 | 8.0 | 0.00 | 0.00 | 0.00 | 66 | 1020.6 |
| 20260906171118 | 75 | 42 | 5.0 | 10.0 | 0.00 | 0.00 | 0.00 | 68 | 1020.8 |
| 20260906170615 | 75 | 66 | 6.0 | 9.0 | 0.00 | 0.00 | 0.00 | 68 | 1020.6 |
| 20260906170113 | 75 | 56 | 5.0 | 8.0 | 0.00 | 0.00 | 0.00 | 66 | 1020.8 |
| 20260906165610 | 75 | 105 | 4.0 | 9.0 | 0.00 | 0.00 | 0.00 | 66 | 1021.0 |
| 20260906165105 | 75 | 49 | 6.0 | 8.0 | 0.00 | 0.00 | 0.00 | 66 | 1020.6 |
| 20260906164604 | 75 | 282 | 2.0 | 5.0 | 0.00 | 0.00 | 0.00 | 70 | 1020.4 |
| 20260906164100 | 75 | 57 | 3.0 | 7.0 | 0.00 | 0.00 | 0.00 | 70 | 1020.8 |
| 20260906163555 | 75 | 336 | 1.0 | 5.0 | 0.00 | 0.00 | 0.00 | 68 | 1020.9 |
| 20260906163051 | 75 | 105 | 3.0 | 7.0 | 0.00 | 0.00 | 0.00 | 69 | 1021.1 |
| 20260906162548 | 76 | 12 | 2.0 | 6.0 | 0.00 | 0.00 | 0.00 | 68 | 1021.1 |
| 20260906162043 | 76 | 89 | 1.0 | 2.0 | 0.00 | 0.00 | 0.00 | 68 | 1020.8 |
| 20260906161538 | 76 | 73 | 1.0 | 5.0 | 0.00 | 0.00 | 0.00 | 71 | 1020.6 |
| 20260906161037 | 76 | 87 | 3.0 | 8.0 | 0.00 | 0.00 | 0.00 | 70 | 1020.6 |
| 20260906160536 | 75 | 157 | 1.0 | 5.0 | 0.00 | 0.00 | 0.00 | 70 | 1020.9 |
| 20260906160035 | 75 | 164 | 1.0 | 6.0 | 0.00 | 0.00 | 0.00 | 69 | 1020.8 |
| 20260906155532 | 74 | 48 | 5.0 | 8.0 | 0.00 | 0.00 | 0.00 | 69 | 1020.6 |
| 20260906155029 | 73 | 24 | 2.0 | 3.0 | 0.00 | 0.00 | 0.00 | 75 | 1020.8 |
| 20260906154524 | 75 | 33 | 4.0 | 5.0 | 0.00 | 0.00 | 0.00 | 73 | 1020.9 |
| 20260906154022 | 74 | 37 | 4.0 | 7.0 | 0.00 | 0.00 | 0.00 | 75 | 1020.9 |
| 20260906153521 | 73 | 75 | 3.0 | 6.0 | 0.00 | 0.00 | 0.00 | 77 | 1020.8 |
| 20260906153017 | 74 | 164 | 0.0 | 3.0 | 0.00 | 0.00 | 0.00 | 77 | 1020.4 |
| 20260906152517 | 74 | 64 | 5.0 | 7.0 | 0.00 | 0.00 | 0.00 | 75 | 1020.6 |
| 20260906152016 | 74 | 216 | 2.0 | 3.0 | 0.00 | 0.00 | 0.00 | 76 | 1020.4 |
| 20260906151512 | 74 | 263 | 3.0 | 5.0 | 0.00 | 0.00 | 0.00 | 77 | 1020.5 |
| 20260906151007 | 73 | 358 | 3.0 | 7.0 | 0.00 | 0.00 | 0.00 | 77 | 1020.6 |
| 20260906150502 | 73 | 16 | 1.0 | 3.0 | 0.00 | 0.00 | 0.00 | 77 | 1020.5 |
| 20260906150002 | 72 | 60 | 4.0 | 6.0 | 0.00 | 0.00 | 0.00 | 79 | 1020.4 |
| 20260906145456 | 72 | 28 | 2.0 | 6.0 | 0.00 | 0.00 | 0.00 | 80 | 1020.2 |
| 20260906144955 | 72 | 120 | 3.0 | 3.0 | 0.00 | 0.00 | 0.00 | 79 | 1020.5 |
| 20260906144450 | 71 | 81 | 2.0 | 7.0 | 0.00 | 0.00 | 0.00 | 80 | 1020.3 |
| 20260906143946 | 71 | 4 | 1.0 | 7.0 | 0.00 | 0.00 | 0.00 | 82 | 1020.4 |
| 20260906143441 | 71 | 73 | 3.0 | 6.0 | 0.00 | 0.00 | 0.00 | 83 | 1020.3 |
| 20260906142937 | 71 | 43 | 3.0 | 7.0 | 0.00 | 0.00 | 0.00 | 82 | 1020.2 |
| 20260906142431 | 71 | 204 | 1.0 | 2.0 | 0.00 | 0.00 | 0.00 | 84 | 1020.5 |
| 20260906141926 | 71 | 321 | 2.0 | 3.0 | 0.00 | 0.00 | 0.00 | 85 | 1020.3 |
| 20260906141426 | 71 | 354 | 3.0 | 3.0 | 0.00 | 0.00 | 0.00 | 84 | 1020.3 |
| 20260906140920 | 71 | 353 | 4.0 | 7.0 | 0.00 | 0.00 | 0.00 | 83 | 1020.3 |
| 20260906140415 | 71 | 359 | 2.0 | 5.0 | 0.00 | 0.00 | 0.00 | 85 | 1020.3 |
| 20260906135913 | 71 | 52 | 1.0 | 6.0 | 0.00 | 0.00 | 0.00 | 85 | 1020.2 |
| 20260906135412 | 71 | 281 | 2.0 | 7.0 | 0.00 | 0.00 | 0.00 | 84 | 1020.2 |
| 20260906134908 | 71 | 122 | 0.0 | 7.0 | 0.00 | 0.00 | 0.00 | 85 | 1020.2 |
| 20260906134403 | 70 | 91 | 3.0 | 7.0 | 0.00 | 0.00 | 0.00 | 85 | 1020.2 |
| 20260906133858 | 70 | 70 | 4.0 | 7.0 | 0.00 | 0.00 | 0.00 | 85 | 1020.1 |
| 20260906133354 | 70 | 89 | 2.0 | 6.0 | 0.00 | 0.00 | 0.00 | 86 | 1020.2 |
| 20260906132849 | 69 | 90 | 1.0 | 3.0 | 0.00 | 0.00 | 0.00 | 87 | 1020.1 |
| 20260906132344 | 70 | 338 | 1.0 | 6.0 | 0.00 | 0.00 | 0.00 | 88 | 1019.8 |
| 20260906131840 | 69 | 111 | 4.0 | 7.0 | 0.00 | 0.00 | 0.00 | 88 | 1019.8 |
| 20260906131335 | 68 | 64 | 3.0 | 3.0 | 0.00 | 0.00 | 0.00 | 90 | 1019.7 |
| 20260906130831 | 67 | 53 | 1.0 | 3.0 | 0.00 | 0.00 | 0.00 | 91 | 1019.8 |
| 20260906130330 | 67 | 91 | 5.0 | 6.0 | 0.00 | 0.00 | 0.00 | 90 | 1020.0 |
| 20260906125829 | 66 | 65 | 3.0 | 3.0 | 0.00 | 0.00 | 0.00 | 90 | 1020.0 |
| 20260906125327 | 66 | 77 | 2.0 | 2.0 | 0.00 | 0.00 | 0.00 | 92 | 1019.8 |
| 20260906124822 | 65 | 79 | 3.0 | 3.0 | 0.00 | 0.00 | 0.00 | 92 | 1019.8 |
| 20260906124318 | 64 | 349 | 1.0 | 2.0 | 0.00 | 0.00 | 0.00 | 95 | 1020.0 |
| 20260906123816 | 63 | 26 | 1.0 | 2.0 | 0.00 | 0.00 | 0.00 | 97 | 1019.9 |
| 20260906123312 | 62 | 223 | 1.0 | 1.0 | 0.00 | 0.00 | 0.00 | 97 | 1020.0 |
| 20260906122811 | 62 | 8 | 1.0 | 2.0 | 0.00 | 0.00 | 0.00 | 98 | 1019.8 |
| 20260906122307 | 61 | 226 | 0.0 | 1.0 | 0.00 | 0.00 | 0.00 | 98 | 1019.8 |
| 20260906121804 | 60 | 233 | 1.0 | 2.0 | 0.00 | 0.00 | 0.00 | 99 | 1019.8 |
| 20260906121259 | 60 | 315 | 2.0 | 3.0 | 0.00 | 0.00 | 0.00 | 99 | 1019.7 |
| 20260906120755 | 60 | 280 | 1.0 | 1.0 | 0.00 | 0.00 | 0.00 | 99 | 1019.5 |
| 20260906120251 | 59 | 287 | 0.0 | 2.0 | 0.00 | 0.00 | 0.00 | 99 | 1019.6 |
| 20260906115747 | 59 | 240 | 0.0 | 0.0 | 0.00 | 0.00 | 0.00 | 99 | 1019.6 |
| 20260906115242 | 59 | 237 | 0.0 | 0.0 | 0.00 | 0.00 | 0.00 | 99 | 1019.5 |
| 20260906114741 | 58 | 242 | 0.0 | 0.0 | 0.00 | 0.00 | 0.00 | 99 | 1019.5 |
| 20260906114236 | 57 | 253 | 0.0 | 0.0 | 0.00 | 0.00 | 0.00 | 99 | 1019.2 |
| 20260906113732 | 57 | 239 | 0.0 | 0.0 | 0.00 | 0.00 | 0.00 | 99 | 1019.2 |
| 20260906113231 | 57 | 242 | 0.0 | 0.0 | 0.00 | 0.00 | 0.00 | 99 | 1019.2 |
| 20260906112731 | 56 | 240 | 0.0 | 0.0 | 0.00 | 0.00 | 0.00 | 99 | 1019.2 |
| 20260906112228 | 56 | 235 | 0.0 | 0.0 | 0.00 | 0.00 | 0.00 | 99 | 1019.1 |
| 20260906111727 | 56 | 237 | 0.0 | 0.0 | 0.00 | 0.00 | 0.00 | 99 | 1018.9 |
| 20260906111221 | 57 | 238 | 0.0 | 0.0 | 0.00 | 0.00 | 0.00 | 98 | 1018.9 |
| 20260906110716 | 57 | 239 | 0.0 | 0.0 | 0.00 | 0.00 | 0.00 | 99 | 1018.9 |
| 20260906110212 | 57 | 250 | 0.0 | 0.0 | 0.00 | 0.00 | 0.00 | 98 | 1018.8 |
| 20260906105711 | 57 | 252 | 0.0 | 1.0 | 0.00 | 0.00 | 0.00 | 98 | 1018.9 |
| 20260906105208 | 57 | 291 | 1.0 | 1.0 | 0.00 | 0.00 | 0.00 | 98 | 1018.7 |
| 20260906104707 | 57 | 242 | 0.0 | 0.0 | 0.00 | 0.00 | 0.00 | 98 | 1018.7 |
| 20260906104206 | 57 | 276 | 2.0 | 2.0 | 0.00 | 0.00 | 0.00 | 98 | 1018.7 |
| 20260906103704 | 57 | 251 | 0.0 | 1.0 | 0.00 | 0.00 | 0.00 | 98 | 1018.9 |
| 20260906103159 | 57 | 240 | 0.0 | 1.0 | 0.00 | 0.00 | 0.00 | 98 | 1018.7 |
| 20260906102654 | 57 | 249 | 0.0 | 0.0 | 0.00 | 0.00 | 0.00 | 98 | 1018.5 |
| 20260906102154 | 57 | 239 | 0.0 | 0.0 | 0.00 | 0.00 | 0.00 | 97 | 1018.6 |
| 20260906101654 | 57 | 249 | 0.0 | 0.0 | 0.00 | 0.00 | 0.00 | 98 | 1018.6 |
| 20260906101149 | 57 | 242 | 0.0 | 0.0 | 0.00 | 0.00 | 0.00 | 97 | 1018.9 |
| 20260906100644 | 58 | 245 | 0.0 | 0.0 | 0.00 | 0.00 | 0.00 | 97 | 1018.7 |
| 20260906100139 | 58 | 249 | 0.0 | 0.0 | 0.00 | 0.00 | 0.00 | 97 | 1018.4 |
| 20260906095634 | 58 | 269 | 0.0 | 0.0 | 0.00 | 0.00 | 0.00 | 97 | 1018.6 |
| 20260906095129 | 58 | 246 | 0.0 | 0.0 | 0.00 | 0.00 | 0.00 | 97 | 1018.6 |
| 20260906094628 | 58 | 249 | 0.0 | 0.0 | 0.00 | 0.00 | 0.00 | 97 | 1018.7 |
| 20260906094124 | 58 | 261 | 1.0 | 2.0 | 0.00 | 0.00 | 0.00 | 97 | 1018.8 |
| 20260906093620 | 58 | 293 | 1.0 | 1.0 | 0.00 | 0.00 | 0.00 | 96 | 1018.6 |
| 20260906093120 | 58 | 304 | 2.0 | 2.0 | 0.00 | 0.00 | 0.00 | 96 | 1018.6 |
| 20260906092615 | 58 | 255 | 0.0 | 1.0 | 0.00 | 0.00 | 0.00 | 96 | 1018.7 |
| 20260906092110 | 58 | 257 | 0.0 | 1.0 | 0.00 | 0.00 | 0.00 | 96 | 1018.7 |
| 20260906091606 | 58 | 228 | 0.0 | 1.0 | 0.00 | 0.00 | 0.00 | 96 | 1018.8 |
| 20260906091057 | 58 | 280 | 1.0 | 1.0 | 0.00 | 0.00 | 0.00 | 96 | 1018.7 |
| 20260906090557 | 58 | 246 | 0.0 | 0.0 | 0.00 | 0.00 | 0.00 | 96 | 1018.8 |
| 20260906090056 | 58 | 238 | 0.0 | 1.0 | 0.00 | 0.00 | 0.00 | 96 | 1018.9 |
| 20260906085556 | 58 | 243 | 0.0 | 1.0 | 0.00 | 0.00 | 0.00 | 96 | 1018.8 |
| 20260906085050 | 58 | 239 | 0.0 | 0.0 | 0.00 | 0.00 | 0.00 | 96 | 1019.0 |
| 20260906084545 | 58 | 269 | 0.0 | 0.0 | 0.00 | 0.00 | 0.00 | 96 | 1018.9 |
| 20260906084044 | 58 | 246 | 0.0 | 0.0 | 0.00 | 0.00 | 0.00 | 96 | 1019.0 |
| 20260906083540 | 59 | 259 | 0.0 | 0.0 | 0.00 | 0.00 | 0.00 | 95 | 1018.7 |
| 20260906083039 | 59 | 241 | 0.0 | 0.0 | 0.00 | 0.00 | 0.00 | 95 | 1018.8 |
| 20260906082534 | 59 | 241 | 0.0 | 0.0 | 0.00 | 0.00 | 0.00 | 95 | 1018.7 |
| 20260906082030 | 59 | 242 | 0.0 | 0.0 | 0.00 | 0.00 | 0.00 | 95 | 1018.8 |
| 20260906081526 | 59 | 239 | 0.0 | 0.0 | 0.00 | 0.00 | 0.00 | 95 | 1018.7 |
| 20260906081021 | 59 | 239 | 0.0 | 0.0 | 0.00 | 0.00 | 0.00 | 95 | 1018.8 |
| 20260906080518 | 59 | 262 | 0.0 | 0.0 | 0.00 | 0.00 | 0.00 | 95 | 1018.6 |
| 20260906080014 | 59 | 241 | 0.0 | 0.0 | 0.00 | 0.00 | 0.00 | 95 | 1018.6 |
| 20260906075508 | 60 | 236 | 0.0 | 0.0 | 0.00 | 0.00 | 0.00 | 95 | 1018.5 |
| 20260906075002 | 60 | 240 | 0.0 | 1.0 | 0.00 | 0.00 | 0.00 | 95 | 1018.6 |
| 20260906074457 | 60 | 250 | 0.0 | 0.0 | 0.00 | 0.00 | 0.00 | 95 | 1018.5 |
| 20260906073955 | 60 | 235 | 0.0 | 1.0 | 0.00 | 0.00 | 0.00 | 95 | 1018.3 |
| 20260906073450 | 60 | 241 | 0.0 | 2.0 | 0.00 | 0.00 | 0.00 | 95 | 1018.5 |
| 20260906072947 | 60 | 241 | 0.0 | 0.0 | 0.00 | 0.00 | 0.00 | 95 | 1018.4 |
| 20260906072442 | 60 | 276 | 0.0 | 1.0 | 0.00 | 0.00 | 0.00 | 95 | 1018.4 |
| 20260906071938 | 60 | 252 | 0.0 | 0.0 | 0.00 | 0.00 | 0.00 | 95 | 1018.5 |
| 20260906071433 | 60 | 248 | 0.0 | 0.0 | 0.00 | 0.00 | 0.00 | 95 | 1018.3 |
| 20260906070929 | 60 | 248 | 0.0 | 0.0 | 0.00 | 0.00 | 0.00 | 94 | 1018.3 |
| 20260906070425 | 61 | 248 | 0.0 | 0.0 | 0.00 | 0.00 | 0.00 | 94 | 1018.3 |
| 20260906065920 | 61 | 216 | 0.0 | 0.0 | 0.00 | 0.00 | 0.00 | 94 | 1018.3 |
| 20260906065415 | 61 | 200 | 0.0 | 0.0 | 0.00 | 0.00 | 0.00 | 94 | 1018.3 |
| 20260906064910 | 61 | 168 | 0.0 | 0.0 | 0.00 | 0.00 | 0.00 | 94 | 1018.1 |
| 20260906064401 | 60 | 174 | 0.0 | 0.0 | 0.00 | 0.00 | 0.00 | 95 | 1018.0 |
| 20260906063900 | 60 | 171 | 0.0 | 1.0 | 0.00 | 0.00 | 0.00 | 95 | 1018.0 |
| 20260906063356 | 60 | 207 | 0.0 | 0.0 | 0.00 | 0.00 | 0.00 | 95 | 1018.1 |
| 20260906062851 | 60 | 210 | 0.0 | 0.0 | 0.00 | 0.00 | 0.00 | 94 | 1018.0 |
| 20260906062350 | 60 | 210 | 0.0 | 0.0 | 0.00 | 0.00 | 0.00 | 94 | 1018.2 |
| 20260906061845 | 60 | 210 | 0.0 | 0.0 | 0.00 | 0.00 | 0.00 | 94 | 1018.1 |
| 20260906061336 | 61 | 210 | 0.0 | 0.0 | 0.00 | 0.00 | 0.00 | 93 | 1018.0 |
| 20260906060830 | 61 | 210 | 0.0 | 0.0 | 0.00 | 0.00 | 0.00 | 93 | 1018.2 |
| 20260906060329 | 61 | 210 | 0.0 | 0.0 | 0.00 | 0.00 | 0.00 | 92 | 1018.2 |
| 20260906055824 | 62 | 209 | 0.0 | 0.0 | 0.00 | 0.00 | 0.00 | 92 | 1018.1 |
| 20260906055319 | 62 | 200 | 0.0 | 0.0 | 0.00 | 0.00 | 0.00 | 92 | 1018.1 |
| 20260906054815 | 62 | 200 | 0.0 | 0.0 | 0.00 | 0.00 | 0.00 | 91 | 1018.3 |
| 20260906054310 | 62 | 199 | 0.0 | 0.0 | 0.00 | 0.00 | 0.00 | 91 | 1018.0 |
| 20260906053806 | 62 | 199 | 0.0 | 0.0 | 0.00 | 0.00 | 0.00 | 90 | 1018.1 |
| 20260906053301 | 62 | 199 | 0.0 | 0.0 | 0.00 | 0.00 | 0.00 | 90 | 1018.0 |
| 20260906052756 | 62 | 200 | 0.0 | 0.0 | 0.00 | 0.00 | 0.00 | 89 | 1017.9 |
| 20260906052252 | 63 | 200 | 0.0 | 0.0 | 0.00 | 0.00 | 0.00 | 88 | 1018.1 |
| 20260906051750 | 63 | 196 | 0.0 | 0.0 | 0.00 | 0.00 | 0.00 | 88 | 1018.1 |
| 20260906051249 | 64 | 212 | 0.0 | 0.0 | 0.00 | 0.00 | 0.00 | 88 | 1018.2 |
| 20260906050744 | 64 | 232 | 0.0 | 0.0 | 0.00 | 0.00 | 0.00 | 87 | 1018.2 |
| 20260906050239 | 65 | 199 | 0.0 | 1.0 | 0.00 | 0.00 | 0.00 | 86 | 1018.0 |
| 20260906045738 | 65 | 107 | 1.0 | 2.0 | 0.00 | 0.00 | 0.00 | 86 | 1018.2 |
| 20260906045233 | 65 | 94 | 1.0 | 3.0 | 0.00 | 0.00 | 0.00 | 86 | 1018.1 |
| 20260906044729 | 65 | 131 | 0.0 | 2.0 | 0.00 | 0.00 | 0.00 | 86 | 1017.9 |
| 20260906044224 | 65 | 140 | 1.0 | 1.0 | 0.00 | 0.00 | 0.00 | 86 | 1018.0 |
| 20260906043720 | 65 | 184 | 0.0 | 2.0 | 0.00 | 0.00 | 0.00 | 85 | 1018.1 |
| 20260906043216 | 65 | 91 | 2.0 | 2.0 | 0.00 | 0.00 | 0.00 | 83 | 1018.0 |
| 20260906042715 | 66 | 274 | 1.0 | 2.0 | 0.00 | 0.00 | 0.00 | 82 | 1018.1 |
| 20260906042214 | 66 | 106 | 0.0 | 3.0 | 0.00 | 0.00 | 0.00 | 80 | 1018.0 |
| 20260906041710 | 66 | 92 | 2.0 | 2.0 | 0.00 | 0.00 | 0.00 | 80 | 1017.8 |
| 20260906041205 | 66 | 38 | 3.0 | 3.0 | 0.00 | 0.00 | 0.00 | 79 | 1017.9 |
| 20260906040701 | 66 | 110 | 1.0 | 3.0 | 0.00 | 0.00 | 0.00 | 79 | 1017.9 |
| 20260906040156 | 67 | 64 | 3.0 | 3.0 | 0.00 | 0.00 | 0.00 | 79 | 1018.0 |
| 20260906035651 | 67 | 81 | 3.0 | 6.0 | 0.00 | 0.06 | 0.06 | 78 | 1017.7 |
| 20260906035147 | 67 | 74 | 3.0 | 6.0 | 0.00 | 0.06 | 0.06 | 77 | 1017.8 |
| 20260906034641 | 67 | 55 | 3.0 | 5.0 | 0.00 | 0.06 | 0.06 | 78 | 1017.7 |
| 20260906034136 | 68 | 49 | 3.0 | 6.0 | 0.00 | 0.06 | 0.06 | 79 | 1018.0 |
| 20260906033632 | 68 | 46 | 2.0 | 6.0 | 0.00 | 0.06 | 0.06 | 79 | 1018.1 |
| 20260906033126 | 68 | 93 | 1.0 | 5.0 | 0.00 | 0.06 | 0.06 | 79 | 1017.7 |
| 20260906032623 | 68 | 62 | 5.0 | 7.0 | 0.00 | 0.06 | 0.06 | 80 | 1017.8 |
| 20260906032122 | 68 | 68 | 3.0 | 6.0 | 0.00 | 0.06 | 0.06 | 80 | 1017.8 |
| 20260906031618 | 68 | 64 | 2.0 | 6.0 | 0.00 | 0.06 | 0.06 | 81 | 1017.7 |
| 20260906031113 | 68 | 71 | 4.0 | 6.0 | 0.00 | 0.06 | 0.06 | 83 | 1017.8 |
| 20260906030612 | 68 | 62 | 2.0 | 3.0 | 0.00 | 0.06 | 0.06 | 85 | 1017.7 |
| 20260906030108 | 68 | 69 | 3.0 | 3.0 | 0.00 | 0.06 | 0.06 | 86 | 1017.6 |
| 20260906025607 | 68 | 55 | 2.0 | 3.0 | 0.00 | 0.06 | 0.06 | 88 | 1017.8 |
| 20260906025106 | 68 | 111 | 1.0 | 2.0 | 0.00 | 0.06 | 0.06 | 91 | 1017.4 |
| 20260906024601 | 68 | 141 | 0.0 | 1.0 | 0.00 | 0.06 | 0.06 | 91 | 1017.6 |
| 20260906024055 | 68 | 123 | 2.0 | 2.0 | 0.00 | 0.06 | 0.06 | 91 | 1017.5 |
| 20260906023552 | 68 | 232 | 0.0 | 1.0 | 0.00 | 0.06 | 0.06 | 90 | 1017.4 |
| 20260906023046 | 68 | 153 | 0.0 | 2.0 | 0.00 | 0.06 | 0.06 | 90 | 1017.5 |
| 20260906022541 | 68 | 43 | 1.0 | 2.0 | 0.00 | 0.06 | 0.06 | 90 | 1017.4 |
| 20260906022037 | 68 | 207 | 0.0 | 1.0 | 0.00 | 0.06 | 0.06 | 89 | 1017.1 |
| 20260906021532 | 68 | 89 | 1.0 | 2.0 | 0.00 | 0.06 | 0.06 | 89 | 1017.3 |
| 20260906021031 | 68 | 105 | 2.0 | 3.0 | 0.00 | 0.06 | 0.06 | 89 | 1017.4 |
| 20260906020530 | 69 | 121 | 1.0 | 2.0 | 0.00 | 0.06 | 0.06 | 89 | 1017.3 |
| 20260906020025 | 69 | 33 | 1.0 | 2.0 | 0.00 | 0.06 | 0.06 | 89 | 1017.4 |
| 20260906015524 | 69 | 166 | 0.0 | 1.0 | 0.00 | 0.06 | 0.06 | 89 | 1017.3 |
| 20260906015024 | 69 | 81 | 1.0 | 3.0 | 0.00 | 0.06 | 0.06 | 89 | 1017.2 |
| 20260906014519 | 69 | 42 | 2.0 | 2.0 | 0.00 | 0.06 | 0.06 | 88 | 1017.4 |
| 20260906014015 | 69 | 89 | 2.0 | 2.0 | 0.00 | 0.06 | 0.06 | 88 | 1017.2 |
| 20260906013510 | 69 | 124 | 0.0 | 2.0 | 0.00 | 0.06 | 0.06 | 88 | 1017.3 |
| 20260906013006 | 69 | 101 | 1.0 | 2.0 | 0.00 | 0.06 | 0.06 | 88 | 1017.3 |
| 20260906012501 | 69 | 91 | 1.0 | 1.0 | 0.00 | 0.06 | 0.06 | 88 | 1017.2 |
| 20260906012000 | 69 | 158 | 0.0 | 1.0 | 0.00 | 0.06 | 0.06 | 88 | 1017.3 |
| 20260906011456 | 69 | 102 | 1.0 | 2.0 | 0.00 | 0.06 | 0.06 | 88 | 1016.9 |
| 20260906010950 | 69 | 153 | 0.0 | 2.0 | 0.00 | 0.06 | 0.06 | 88 | 1017.0 |
| 20260906010446 | 69 | 191 | 0.0 | 1.0 | 0.00 | 0.06 | 0.06 | 88 | 1016.8 |
| 20260906005942 | 70 | 184 | 1.0 | 2.0 | 0.00 | 0.06 | 0.06 | 88 | 1016.9 |
| 20260906005441 | 70 | 133 | 1.0 | 2.0 | 0.00 | 0.06 | 0.06 | 87 | 1017.0 |
| 20260906004940 | 70 | 200 | 1.0 | 1.0 | 0.00 | 0.06 | 0.06 | 87 | 1016.8 |
| 20260906004434 | 71 | 74 | 1.0 | 1.0 | 0.00 | 0.06 | 0.06 | 86 | 1016.9 |
| 20260906003930 | 71 | 160 | 0.0 | 1.0 | 0.00 | 0.06 | 0.06 | 86 | 1016.8 |
| 20260906003430 | 71 | 187 | 1.0 | 1.0 | 0.00 | 0.06 | 0.06 | 86 | 1017.0 |
| 20260906002926 | 71 | 93 | 1.0 | 2.0 | 0.00 | 0.06 | 0.06 | 85 | 1016.8 |
| 20260906002425 | 71 | 158 | 1.0 | 2.0 | 0.00 | 0.06 | 0.06 | 85 | 1016.9 |
| 20260906001920 | 71 | 98 | 1.0 | 3.0 | 0.00 | 0.06 | 0.06 | 85 | 1016.9 |
| 20260906001416 | 71 | 68 | 2.0 | 2.0 | 0.00 | 0.06 | 0.06 | 85 | 1016.8 |
| 20260906000911 | 71 | 60 | 3.0 | 5.0 | 0.00 | 0.06 | 0.06 | 84 | 1016.6 |
| 20260906000406 | 71 | 70 | 2.0 | 5.0 | 0.00 | 0.06 | 0.06 | 85 | 1016.6 |
| 20260905235901 | 71 | 104 | 2.0 | 5.0 | 0.00 | 0.06 | 0.06 | 84 | 1016.5 |
| 20260905235355 | 71 | 35 | 3.0 | 6.0 | 0.00 | 0.06 | 0.06 | 84 | 1016.6 |
| 20260905234850 | 71 | 101 | 2.0 | 3.0 | 0.00 | 0.06 | 0.06 | 85 | 1016.7 |
| 20260905234346 | 71 | 101 | 3.0 | 5.0 | 0.00 | 0.06 | 0.06 | 85 | 1016.5 |
| 20260905233841 | 72 | 106 | 2.0 | 3.0 | 0.00 | 0.06 | 0.06 | 85 | 1016.5 |
| 20260905233336 | 72 | 104 | 3.0 | 3.0 | 0.00 | 0.06 | 0.06 | 85 | 1016.7 |
| 20260905232835 | 72 | 70 | 2.0 | 5.0 | 0.00 | 0.06 | 0.06 | 85 | 1016.6 |
| 20260905232331 | 72 | 88 | 2.0 | 2.0 | 0.00 | 0.06 | 0.06 | 85 | 1016.5 |
| 20260905231827 | 72 | 87 | 1.0 | 5.0 | 0.00 | 0.06 | 0.06 | 85 | 1016.5 |
| 20260905231321 | 73 | 116 | 2.0 | 5.0 | 0.00 | 0.06 | 0.06 | 84 | 1016.5 |
| 20260905230818 | 73 | 85 | 2.0 | 3.0 | 0.00 | 0.06 | 0.06 | 83 | 1016.4 |
| 20260905230316 | 73 | 123 | 5.0 | 7.0 | 0.00 | 0.06 | 0.06 | 83 | 1016.5 |
| 20260905225815 | 73 | 51 | 3.0 | 8.0 | 0.00 | 0.06 | 0.06 | 82 | 1016.4 |
| 20260905225310 | 73 | 59 | 4.0 | 7.0 | 0.00 | 0.06 | 0.06 | 82 | 1016.4 |
| 20260905224810 | 73 | 65 | 4.0 | 7.0 | 0.00 | 0.06 | 0.06 | 82 | 1016.4 |
| 20260905224306 | 73 | 71 | 4.0 | 6.0 | 0.00 | 0.06 | 0.06 | 81 | 1016.3 |
| 20260905223801 | 74 | 64 | 4.0 | 6.0 | 0.00 | 0.06 | 0.06 | 80 | 1016.2 |
| 20260905223258 | 74 | 67 | 3.0 | 7.0 | 0.00 | 0.06 | 0.06 | 80 | 1016.2 |
| 20260905222753 | 74 | 46 | 5.0 | 6.0 | 0.00 | 0.06 | 0.06 | 80 | 1016.3 |
| 20260905222252 | 74 | 78 | 3.0 | 5.0 | 0.00 | 0.06 | 0.06 | 80 | 1016.1 |
| 20260905221748 | 74 | 117 | 4.0 | 6.0 | 0.00 | 0.06 | 0.06 | 79 | 1016.1 |
| 20260905221245 | 74 | 83 | 3.0 | 8.0 | 0.00 | 0.06 | 0.06 | 79 | 1016.0 |
| 20260905220740 | 74 | 70 | 5.0 | 7.0 | 0.00 | 0.06 | 0.06 | 78 | 1016.1 |
| 20260905220236 | 74 | 61 | 4.0 | 6.0 | 0.00 | 0.06 | 0.06 | 79 | 1016.0 |
| 20260905215736 | 74 | 75 | 3.0 | 8.0 | 0.00 | 0.06 | 0.06 | 79 | 1016.2 |
| 20260905215231 | 75 | 98 | 5.0 | 8.0 | 0.00 | 0.06 | 0.06 | 78 | 1016.1 |
| 20260905214727 | 75 | 49 | 4.0 | 7.0 | 0.00 | 0.06 | 0.06 | 78 | 1016.1 |
| 20260905214222 | 75 | 105 | 5.0 | 8.0 | 0.00 | 0.06 | 0.06 | 78 | 1015.8 |
| 20260905213718 | 75 | 58 | 3.0 | 8.0 | 0.00 | 0.06 | 0.06 | 78 | 1015.9 |
| 20260905213214 | 74 | 81 | 5.0 | 8.0 | 0.00 | 0.06 | 0.06 | 78 | 1016.0 |
| 20260905212709 | 74 | 44 | 5.0 | 8.0 | 0.00 | 0.06 | 0.06 | 77 | 1015.9 |
| 20260905212208 | 74 | 40 | 5.0 | 7.0 | 0.00 | 0.06 | 0.06 | 77 | 1015.9 |
| 20260905211703 | 74 | 71 | 5.0 | 9.0 | 0.00 | 0.06 | 0.06 | 76 | 1015.8 |
| 20260905211158 | 74 | 115 | 6.0 | 9.0 | 0.00 | 0.06 | 0.06 | 79 | 1015.7 |
| 20260905210655 | 75 | 107 | 6.0 | 9.0 | 0.00 | 0.06 | 0.06 | 81 | 1015.9 |
| 20260905210154 | 75 | 57 | 6.0 | 9.0 | 0.00 | 0.06 | 0.06 | 82 | 1015.8 |